Weather History for Sharm El Sheikh, Egypt

Change the Weather History Date:

Tuesday, March 25, 2014

  Actual Average Record
Temperature  
Mean Temperature 76 °F -  
Max Temperature 84 °F - - ()
Min Temperature 69 °F - - ()
Cooling Degree Days 12    
Growing Degree Days 26 (Base 50)    
Moisture  
Dew Point 53 °F    
Average Humidity 46    
Maximum Humidity 69    
Minimum Humidity 30    
Precipitation  
Precipitation 0.00 in - - ()
Sea Level Pressure  
Sea Level Pressure 29.78 in    
Wind  
Wind Speed 8 mph ()    
Max Wind Speed 26 mph    
Max Gust Speed -    
Visibility 3.5 miles    
Events      
T = Trace of Precipitation, MM = Missing Value Source: Averaged Metar Reports

Daily Weather History Graph

Daily Weather History Graph

Search for Another Location

Airport:

Trip Planner

Search our weather history database for the weather conditions in past years. The results will help you decide how hot, cold, wet, or windy it might be!

Date:

Astronomy

Mar. 25, 2014 Rise Set
Actual Time 5:40 AM EET 5:56 PM EET
Civil Twilight 5:17 AM EET 6:19 PM EET
Nautical Twilight 4:50 AM EET 6:47 PM EET
Astronomical Twilight 4:22 AM EET 7:14 PM EET
Moon 1:19 AM EET (3/25) 12:29 PM EET (3/25)
Length of Visible Light 13h 02m
Length of Day
12h 15m
Waning Crescent, 35% of the Moon is Illuminated
Mar 25
Waning Crescent
Mar 30
New
Apr 7
First Quarter
Apr 15
Full
Apr 22
Last Quarter

Hourly Weather History & Observations

Time (EET) Temp. Heat Index Dew Point Humidity Pressure Visibility Wind Dir Wind Speed Gust Speed Precip Events Conditions
12:00 AM 73.4 °F - 53.6 °F 50% 29.74 in - North 6.9 mph - N/A   Clear
1:00 AM 73.4 °F - 50.0 °F 44% 29.74 in - Variable 2.3 mph - N/A   Clear
2:00 AM 71.6 °F - 51.8 °F 50% 29.74 in - North 5.8 mph - N/A   Clear
3:00 AM 71.6 °F - 55.4 °F 57% 29.71 in - North 5.8 mph - N/A   Clear
4:00 AM 71.6 °F - 55.4 °F 57% 29.74 in - North 4.6 mph - N/A   Clear
5:00 AM 69.8 °F - 57.2 °F 64% 29.74 in - North 5.8 mph - N/A   Clear
6:00 AM 69.8 °F - 57.2 °F 64% 29.74 in - North 4.6 mph - N/A   Clear
7:00 AM 71.6 °F - 60.8 °F 69% 29.77 in 3.7 mi North 9.2 mph - N/A   Unknown
8:00 AM 73.4 °F - 59.0 °F 61% 29.80 in 3.1 mi North 9.2 mph - N/A   Unknown
9:00 AM 77.0 °F - 57.2 °F 50% 29.80 in 3.1 mi NNE 10.4 mph - N/A   Haze
10:00 AM 78.8 °F - 55.4 °F 44% 29.80 in 3.1 mi NNE 8.1 mph - N/A   Haze
11:00 AM 82.4 °F 81.7 °F 55.4 °F 39% 29.80 in 3.1 mi NE 8.1 mph - N/A   Haze
12:00 PM 84.2 °F - 51.8 °F 33% 29.77 in 3.1 mi NE 8.1 mph - N/A   Haze
1:00 PM 84.2 °F - 51.8 °F 33% 29.74 in 3.7 mi NNE 8.1 mph - N/A   Partly Cloudy
2:00 PM 84.2 °F - 50.0 °F 30% 29.74 in 3.7 mi NE 8.1 mph - N/A   Partly Cloudy
3:00 PM 84.2 °F - 50.0 °F 30% 29.74 in 3.7 mi NNE 9.2 mph - N/A   Partly Cloudy
4:00 PM 80.6 °F - 51.8 °F 37% 29.77 in 3.7 mi NNE 11.5 mph - N/A   Partly Cloudy
5:00 PM 78.8 °F - 51.8 °F 39% 29.77 in 5.0 mi NNE 16.1 mph - N/A   Unknown
6:00 PM 77.0 °F - 51.8 °F 41% 29.80 in - North 13.8 mph - N/A   Clear
7:00 PM 75.2 °F - 51.8 °F 44% 29.80 in - NNW 6.9 mph - N/A   Clear
8:00 PM 75.2 °F - 53.6 °F 47% 29.83 in - NNW 12.7 mph - N/A   Clear
9:00 PM 75.2 °F - 44.6 °F 34% 29.86 in - NNE 21.9 mph - N/A   Clear
10:00 PM 75.2 °F - 44.6 °F 34% 29.89 in - NNE 20.7 mph - N/A   Clear
11:00 PM 71.6 °F - 53.6 °F 53% 29.89 in - North 26.5 mph - N/A   Clear